Regional Weather Roundup
Issued by NWS

Home | Current Version | Previous Version | Text Only | Print | Product List | Glossary Off
Versions: 1 2 3 4 5 6 7 8 9 10 11 12 13 14 15 16 17 18 19 20 21 22 23 24 25 26 27 28 29 30 31 32 33 34 35 36 37 38 39 40 41 42 43 44 45 46 47 48 49 50

000
ASUS45 KTFX 211504
RWRMT
MONTANA HOURLY WEATHER ROUNDUP
NATIONAL WEATHER SERVICE GREAT FALLS MT
804 AM MST FRI NOV 21 2014

NOTE: "FAIR" INDICATES FEW OR NO CLOUDS BELOW 12000 FEET WITH NO
SIGNIFICANT WEATHER AND/OR OBSTRUCTIONS TO VISIBILITY.

* THESE STATIONS ARE NOT UNDER NWS QUALITY CONTROL. THEY DO NOT
   REPORT WEATHER SUCH AS PRECIPITATION OR FOG.

MTZ001>007-043-211600-
WEST OF THE DIVIDE
CITY           SKY/WX    TMP DP  RH WIND       PRES   REMARKS
KALISPELL      FOG       28  27  96 CALM      29.88S VSB 2
MISSOULA       CLOUDY    27  25  92 CALM      29.94S
BUTTE          PTSUNNY   21  18  88 VRB3      29.90F
MULLAN PASS    FOG       30  28  92 SW8G16    29.85F VSB M1/4 WCI  22
* ESSEX        N/A       31  30  96 N/A        N/A
* LINCOLN      N/A       36  27  70 S5G12      N/A   WCI  32
* LOOKOUT PASS N/A       34  33  96 SE4G9      N/A
* POLSON       N/A       32  32 100 SE2        N/A
* RONAN APT    PTSUNNY   28  27  96 N/A        N/A
* SEELEY LAKE  N/A       30  28  92 SE1        N/A
* THOMP F APT  PTCLDY    25  22  88 NE5        N/A   WCI  19
* YAAK HILL    N/A       29  26  89 N/A        N/A
$$

MTZ008-052>055-211600-
SOUTHWEST MONTANA
CITY           SKY/WX    TMP DP  RH WIND       PRES   REMARKS
BOZEMAN        CLOUDY    23  18  81 S3        29.92S
DILLON         PTCLDY    25  18  75 SW14      29.94S WCI  13
* W YELLOWSTON PTSUNNY   29  26  89 SW3G10     N/A
* ENNIS APT    PTSUNNY   28  21  75 S13        N/A   WCI  17
* THREE FORKS  CLOUDY    19  19 100 N/A        N/A
* BOULDER HILL N/A       28  18  66 SW12       N/A   WCI  18
* MONIDA PASS  N/A       19  18  96 SE8        N/A   WCI   9
* RAYNOLDS PAS N/A       24   7  48 S2         N/A
* WHITEHALL    N/A       30  20  66 S4G12      N/A
* WISE RIVER   N/A       27  21  78 S3         N/A
$$

MTZ009>010-012-014-046-048-049-054-211600-
EAST SLOPES AND CENTRAL MONTANA
CITY           SKY/WX    TMP DP  RH WIND       PRES   REMARKS
CUT BANK       CLOUDY    39  28  65 W20G28    29.73S WCI  29
GREAT FALLS    PTSUNNY   39  27  62 SW17      29.77F WCI  30
HELENA         CLOUDY    32  27  82 NW6       29.87S WCI  26
MALMSTROM AFB  PTSUNNY   39  28  65 SW17      29.79F WCI  30
* DEARBORN     N/A       45  25  45 S11G17     N/A
* EAST GLACIER N/A       34  30  85 W24G37     N/A   WCI  22
* MONARCH      N/A       35  18  50 SW12G26    N/A   WCI  27
* PENDROY      N/A       38  24  57 SW2G7      N/A
* ROGERS PASS  N/A       34  24  67 SE9G22     N/A   WCI  27
* SAINT MARY   N/A       36  30  79 S6G24      N/A   WCI  31
* SWEET GRASS  N/A       37  28  70 SW26       N/A   WCI  25
$$

MTZ011-013-016-021-035-040-045-047-050-051-211600-
NORTH CENTRAL MONTANA
CITY           SKY/WX    TMP DP  RH WIND       PRES   REMARKS
HAVRE          PTCLDY    32  27  82 SW17      29.69F WCI  21
LEWISTOWN      PTSUNNY   34  23  64 SW8       29.77F WCI  27
* N BAR RANCH  SUNNY     36  19  50 NW10      29.79R WCI  29
* MALTA APT    PTCLDY    21  16  81 N/A        N/A
* CHESTER      N/A       29  23  78 SW10       N/A   WCI  20
* DENTON       N/A       37  25  62 W14        N/A   WCI  28
* GEYSER       N/A       40  22  49 SW18G24    N/A   WCI  31
* LOMA         N/A       41  29  62 SW15       N/A
$$

MTZ017>020-022>027-061-062-211600-
NORTHEAST MONTANA
CITY           SKY/WX    TMP DP  RH WIND       PRES   REMARKS
GLASGOW        PTCLDY    27  19  72 W7        29.67S WCI  19
GLENDIVE       SUNNY     21  19  92 S8        29.74S WCI  11
JORDAN         SUNNY     27  19  72 W8        29.75R WCI  19
SIDNEY         SUNNY     25  19  78 SE7       29.72S WCI  17
WOLF POINT     SUNNY     18  14  84 W7        29.69S WCI   9
* BEAVER HILL  N/A       32  23  69 S19        N/A   WCI  20
* CIRCLE       N/A       27  22  81 S2         N/A
* LINDSAY DVD  N/A       38  25  60 SW19G24    N/A   WCI  28
* NAVAJO       N/A       34  26  73 W25G30     N/A   WCI  21
* SACO         N/A       37  27  67 SW16G21    N/A   WCI  28
$$

MTZ028>042-056>058-211600-
SOUTHCENTRAL AND SOUTHEAST MONTANA
CITY           SKY/WX    TMP DP  RH WIND       PRES   REMARKS
BAKER          SUNNY     30  21  69 SW13      29.77S WCI  20
BILLINGS       PTCLDY    28  19  69 SW14      29.85R WCI  17
LIVINGSTON     PTCLDY    39  25  57 SW25G46   29.87S WCI  28
MILES CITY     SUNNY     28  21  75 S7        29.79R WCI  21
* LAUREL APT   PTCLDY    21  12  68 N/A        N/A
* ALZADA       N/A       28  22  78 W1         N/A
* HYSHAM       N/A       32  18  56 W8         N/A   WCI  25
* LAME DEER    N/A       37  21  52 NW5        N/A   WCI  33
* REED POINT   N/A       40  23  51 SW4        N/A
* ROSCOE HILL  N/A       36  12  37 NE3        N/A
$$

REGIONAL REPORTS...DAKOTAS
CITY           SKY/WX    TMP DP  RH WIND       PRES   REMARKS
WILLISTON      SUNNY     27  21  78 SW13      29.67S WCI  16
DICKINSON      SUNNY     34  25  70 W10       29.71S WCI  26
BEACH          SUNNY     32  25  75 SW16      29.74S WCI  21
CROSBY         SUNNY     28  27  96 SW17      29.59S WCI  16
BISMARCK       PTCLDY    18  16  92 SE3       29.77S
GRAND FORKS    PTSUNNY   16   9  74 S20       29.79F WCI  -1
FARGO          PTCLDY    18  10  71 S18       29.88F WCI   2
BUFFALO SD     PTCLDY    32  21  64 W10       29.72S WCI  24
RAPID CITY     PTCLDY    34  21  59 W7        29.84R WCI  28
$$

REGIONAL REPORTS...WYOMING/IDAHO/WASHINGTON
CITY           SKY/WX    TMP DP  RH WIND       PRES   REMARKS
GILLETTE       PTCLDY    18  16  92 SW5       29.84S WCI  11
SHERIDAN       PTCLDY    27  19  72 SW3       29.84R
CODY           PTCLDY    39  23  53 SW10G17   29.88S WCI  32
YELLOWSTONE LA PTCLDY    27  21  78 W6        30.01R WCI  20
SALMON         PTCLDY    16  16 100 SE3       30.03S
MULLAN PASS    FOG       30  28  92 SW8G16    29.85S VSB M1/4 WCI  22
SAND POINT     FOG       32  32 100 CALM      29.91F
SPOKANE        FOG       32  30  92 CALM      29.90F

$$




USA.gov is the U.S. government's official web portal to all federal, state and local government web resources and services.